FW0906 Weather Reports


Display with metric or nautical units.
time (UTC)temp
F
wind
direction
speed
MPH
gust
MPH
rain 1hr
in
rain 24hr
in
rain mn
in
humidity
%
barometer
mb
20260902210020 0 0.0 0.0 0.00 0.00 0.00 1013.8
20260902204513 0 0.0 0.0 0.00 0.00 0.00 1013.9
20260902203008 0 0.0 0.0 0.00 0.00 0.00 1013.9
20260902201511 0 0.0 0.0 0.00 0.00 0.00 1014.0
20260902200059 0 0.0 0.0 0.00 0.00 0.00 1014.1
20260902194556 0 0.0 0.0 0.00 0.00 0.00 1014.1
20260902193051 0 0.0 0.0 0.00 0.00 0.00 1014.2
20260902191546 0 0.0 0.0 0.00 0.00 0.00 1014.4
20260902190041 0 0.0 0.0 0.00 0.00 0.00 1014.4
20260902184537 0 0.0 0.0 0.00 0.00 0.00 1014.6
20260902183032 0 0.0 0.0 0.00 0.00 0.00 1014.6
20260902181531 0 0.0 0.0 0.00 0.00 0.00 1014.6
20260902180027 0 0.0 0.0 0.00 0.00 0.00 1014.8
20260902174520 0 0.0 0.0 0.00 0.00 0.00 1014.8
20260902173023 0 0.0 0.0 0.00 0.00 0.00 1014.7
20260902171512 0 0.0 0.0 0.00 0.00 0.00 1014.8
20260902170007 0 0.0 0.0 0.00 0.00 0.00 1014.9
20260902164501 0 0.0 0.0 0.00 0.00 0.00 1015.2
20260902163057 0 0.0 0.0 0.00 0.00 0.00 1015.2
20260902161552 0 0.0 0.0 0.00 0.00 0.00 1015.1
20260902160107 0 0.0 0.0 0.00 0.00 0.00 1015.3
20260902154550 0 0.0 0.0 0.00 0.00 0.00 1015.6
20260902153039 0 0.0 0.0 0.00 0.00 0.00 1015.8
20260902151535 0 0.0 0.0 0.00 0.00 0.00 1015.6
20260902150031 0 0.0 0.0 0.00 0.00 0.00 1015.7
20260902144526 85 360 3.0 10.0 0.00 0.00 0.00 100 1015.5
20260902143021 85 360 3.0 8.0 0.00 0.00 0.00 100 1015.6
20260902141517 84 256 2.0 8.0 0.00 0.00 0.00 100 1015.4
20260902140013 83 249 0.0 7.0 0.00 0.00 0.00 100 1015.5
20260902134512 83 223 1.0 7.0 0.00 0.00 0.00 100 1015.6
20260902133005 82 360 2.0 9.0 0.00 0.00 0.00 100 1015.6
20260902131600 80 228 0.0 6.0 0.00 0.00 0.00 100 1015.6
20260902130055 79 223 0.0 6.0 0.00 0.00 0.00 100 1015.8
20260902124552 78 236 0.0 6.0 0.00 0.00 0.00 100 1015.7
20260902123050 78 220 0.0 4.0 0.00 0.00 0.00 100 1015.7
20260902121542 77 217 0.0 2.0 0.00 0.00 0.00 100 1015.5
20260902120043 77 217 0.0 4.0 0.00 0.00 0.00 100 1015.4
20260902114548 76 224 0.0 4.0 0.00 0.00 0.00 100 1015.4
20260902113029 76 231 0.0 1.0 0.00 0.00 0.00 100 1015.3
20260902111539 76 234 0.0 4.0 0.00 0.00 0.00 100 1015.4
20260902110047 76 236 0.0 0.0 0.00 0.00 0.00 100 1015.5
20260902104522 76 243 0.0 0.0 0.00 0.00 0.00 100 1015.6
20260902103012 77 252 0.0 0.0 0.00 0.00 0.00 100 1015.5
20260902101508 77 250 0.0 1.0 0.00 0.00 0.00 100 1015.4
20260902100004 78 248 0.0 5.0 0.00 0.00 0.00 100 1015.4
20260902094559 77 230 0.0 1.0 0.00 0.00 0.00 100 1015.4
20260902093055 77 230 0.0 0.0 0.00 0.00 0.00 100 1015.3
20260902091555 77 229 0.0 0.0 0.00 0.00 0.00 100 1015.1
20260902090047 77 229 0.0 0.0 0.00 0.00 0.00 100 1015.1
20260902084544 77 229 0.0 0.0 0.00 0.00 0.00 100 1015.0
20260902083037 77 229 0.0 0.0 0.00 0.00 0.00 100 1015.1
20260902081536 77 229 0.0 0.0 0.00 0.00 0.00 100 1015.0
20260902080028 78 229 0.0 0.0 0.00 0.00 0.00 100 1015.1
20260902074525 78 229 0.0 0.0 0.00 0.00 0.00 100 1015.0
20260902073020 78 229 0.0 0.0 0.00 0.00 0.00 100 1015.0
20260902071519 79 229 0.0 0.0 0.00 0.00 0.00 100 1014.9
20260902070011 79 229 0.0 4.0 0.00 0.00 0.00 100 1015.0
20260902064507 79 229 0.0 4.0 0.00 0.00 0.00 100 1015.1
20260902063005 79 223 0.0 0.0 0.00 0.00 0.00 100 1015.2
20260902061613 79 223 0.0 0.0 0.00 0.00 0.00 100 1015.1
20260902060054 79 222 0.0 0.0 0.00 0.00 0.00 100 1015.1
20260902054552 79 222 0.0 0.0 0.00 0.00 0.00 100 1015.0
20260902053045 79 222 0.0 0.0 0.00 0.00 0.00 100 1015.1
20260902051544 80 222 0.0 0.0 0.00 0.00 0.00 100 1015.2
20260902050036 81 222 0.0 0.0 0.00 0.00 0.00 100 1015.1
20260902044532 81 222 0.0 0.0 0.00 0.00 0.00 100 1015.2
20260902043028 82 222 0.0 0.0 0.00 0.00 0.00 100 1015.1
20260902041526 82 222 0.0 0.0 0.00 0.00 0.00 100 1015.3
20260902040020 82 222 0.0 0.0 0.00 0.00 0.00 100 1015.4
20260902034515 83 227 0.0 6.0 0.00 0.00 0.00 100 1015.3
20260902033012 83 232 0.0 1.0 0.00 0.00 0.00 100 1015.5
20260902031506 84 232 0.0 5.0 0.00 0.00 0.00 100 1015.4
20260902030002 84 234 0.0 6.0 0.00 0.00 0.00 100 1015.4
20260902024559 84 231 0.0 3.0 0.00 0.00 0.00 100 1015.4
20260902023054 85 234 0.0 5.0 0.00 0.00 0.00 100 1015.4
20260902021552 85 225 0.0 5.0 0.00 0.00 0.00 100 1015.3
20260902020044 86 233 0.0 4.0 0.00 0.00 0.00 100 1015.2
20260902014541 87 224 0.0 5.0 0.00 0.00 0.00 100 1015.1
20260902013036 87 220 0.0 3.0 0.00 0.00 0.00 100 1014.9
20260902011531 88 229 0.0 3.0 0.00 0.00 0.00 100 1014.7
20260902010040 88 227 0.0 5.0 0.00 0.00 0.00 100 1014.5
20260902004526 89 236 0.0 5.0 0.00 0.00 0.00 100 1014.3
20260902003019 90 216 0.0 4.0 0.00 0.00 0.00 100 1014.3
20260902001514 91 234 0.0 7.0 0.00 0.00 0.00 100 1014.4
20260902000020 92 217 0.0 7.0 0.00 0.00 0.00 100 1014.3
20260901234506 93 231 0.0 8.0 0.00 0.00 0.00 100 1014.4
20260901233000 93 219 0.0 7.0 0.00 0.00 0.00 100 1014.4
20260901231600 94 215 0.0 6.0 0.00 0.00 0.00 100 1014.5
20260901230056 0 0.0 0.0 0.00 0.00 0.00 1014.5
20260901224548 0 0.0 0.0 0.00 0.00 0.00 1014.5
20260901223043 0 0.0 0.0 0.00 0.00 0.00 1014.6
20260901221603 0 0.0 0.0 0.00 0.00 0.00 1014.6
20260901220035 0 0.0 0.0 0.00 0.00 0.00 1014.6
20260901214530 0 0.0 0.0 0.00 0.00 0.00 1014.5
20260901213053 0 0.0 0.0 0.00 0.00 0.00 1014.4
20260901211535 0 0.0 0.0 0.00 0.00 0.00 1014.6